[[{"header":{"parameterUnit":"m.s-1","parameterCategory":1,"la1":30.2991,"la2":30.254,"lo1":-89.0895,"lo2":-89.0444,"dy":0.0017,"dx":0.0017,"nx":28,"ny":28,"refTime":"2025-03-07T03:00:00:Z","depth":0,"parameterNumber":2,"parameterNumberName":"U-component_of_WINDS"},"data":[0,0,0,0,0,0,0,0,0,0,0,0,0,0,0,0,0,0,0,0,0,0,0,0,0,0,0,0,0,0,0,0,0,0,0,0,0,0,0,0,0,0,0,0,0,0,0,0,0,0,0,0,0,0,0,0,0,0,-2.8894,-2.8895,0,-2.896,-2.896,-2.8961,-2.8935,-2.8933,-2.8932,-2.893,-2.8999,-2.9002,-2.9005,0,0,0,0,0,0,0,0,0,0,0,0,0,-2.875,-2.8753,-2.8894,-2.8895,-2.8896,-2.896,-2.896,-2.8961,-2.8935,-2.8933,-2.8932,-2.893,-2.8998,-2.9001,-2.9005,0,0,0,0,0,0,0,0,0,0,0,0,0,-2.8814,-2.8754,-2.8894,-2.889,-2.8891,-2.8959,-2.8961,-2.8962,-2.8936,-2.8933,-2.8931,-2.8929,-2.8996,-2.9001,-2.9006,-2.9082,0,0,-2.9021,-2.9023,0,0,0,0,0,0,0,0,-2.881,-2.8819,-2.889,-2.8891,-2.8891,-2.8937,-2.8935,-2.9002,-2.8936,-2.8919,-2.893,-2.8928,-2.898,-2.8986,-2.9004,-2.9085,-2.9088,-2.9021,-2.9024,-2.9026,-2.9028,0,0,0,0,0,0,0,-2.8806,-2.8816,-2.892,-2.8891,-2.8892,-2.8887,-2.8893,-2.8947,-2.8962,-2.892,-2.8918,-2.8926,-2.898,-2.8999,-2.9005,-2.9089,-2.9021,-2.9025,-2.9028,-2.903,-2.9241,-2.9244,0,0,0,0,0,0,-2.8801,-2.8813,-2.8918,-2.8922,-2.8844,-2.8891,-2.8899,-2.8925,-2.8961,-2.8964,-2.8928,-2.8925,-2.8992,-2.8999,-2.9007,-2.9101,-2.9026,-2.9031,-2.9034,-2.9239,-2.9242,-2.9245,0,0,0,0,0,0,-2.8798,-2.8811,-2.8915,-2.8867,-2.888,-2.8896,-2.8926,-2.8927,-2.8946,-2.8967,-2.897,-2.8945,-2.899,-2.9,-2.9065,-2.9103,-2.9033,-2.9037,-2.9235,-2.924,-2.9243,-2.9288,0,0,0,0,0,0,-2.8794,-2.881,-2.8838,-2.8868,-2.8883,-2.897,-2.8928,-2.893,-2.8954,-2.895,-2.8983,-2.8986,-2.8989,-2.9057,-2.9069,-2.9108,-2.9041,-2.9232,-2.9237,-2.9242,-2.9283,-2.9293,-2.9302,0,0,0,0,0,-2.8789,-2.8847,-2.8839,-2.8852,-2.8918,-2.8973,-2.8981,-2.8983,-2.8957,-2.8987,-2.9001,-2.8985,-2.9097,-2.9064,-2.9078,-2.9119,-2.923,-2.9236,-2.9242,-2.9279,-2.9291,-2.9301,0,0,0,0,0,0,-2.882,-2.8851,-2.8842,-2.8912,-2.894,-2.8968,-2.9005,-2.8995,-2.9031,-2.9026,-2.9027,-2.9035,-2.9101,-2.9116,-2.9079,-2.9196,-2.916,-2.9169,-2.9184,-2.9195,-2.9204,-2.9199,-2.9045,0,0,0,0,0,-2.8836,-2.8877,-2.8901,-2.8961,-2.8975,-2.8988,-2.9012,-2.9011,-2.904,-2.9052,-2.9071,-2.91,-2.9142,-2.917,-2.9209,-2.9286,-2.9294,-2.9321,-2.933,-2.9338,-2.9345,-2.939,-2.9403,-2.9264,-2.9264,-2.9264,0,0,-2.8867,-2.8889,-2.8914,-2.8968,-2.8989,-2.9033,-2.8998,-2.9045,-2.9078,-2.9059,-2.9121,-2.9137,-2.917,-2.9241,-2.9274,-2.9256,-2.9386,-2.9345,-2.9351,-2.9355,-2.9397,-2.941,-2.9422,-2.9269,-2.9268,-2.9267,0,0,-2.8947,-2.8967,-2.9019,-2.9043,-2.9076,-2.9085,-2.9098,-2.9129,-2.9138,-2.9201,-2.9188,-2.9228,-2.93,-2.9325,-2.9347,-2.9442,-2.943,-2.9455,-2.9502,-2.9546,-2.9557,-2.9566,-2.9601,-2.9614,-2.9462,-2.9462,-2.9462,0,-2.8982,-2.9046,-2.9048,-2.9097,-2.9122,-2.9108,-2.9162,-2.9185,-2.923,-2.9248,-2.9228,-2.932,-2.9341,-2.942,-2.9443,-2.9461,-2.9477,-2.945,-2.9555,-2.9565,-2.9574,-2.9607,-2.962,-2.9465,-2.9465,-2.9465,-2.9464,0,-2.9089,-2.9135,-2.9173,-2.9218,-2.9247,-2.9299,-2.931,-2.934,-2.9338,-2.9349,-2.9415,-2.9441,-2.9486,-2.9505,-2.9503,-2.9585,-2.9573,-2.9554,-2.9517,-2.959,-2.9621,-2.9634,-2.9469,-2.9468,-2.9467,-2.9467,0,0,-2.9187,-2.9235,-2.9249,-2.9271,-2.9309,-2.9345,-2.9398,-2.9443,-2.9469,-2.9502,-2.9547,-2.9611,-2.9594,-2.962,-2.9621,-2.9659,-2.9734,-2.9635,-2.9636,-2.9654,-2.9829,-2.9843,-2.9858,-2.9727,-2.973,-2.9731,-2.9826,0,-2.9271,-2.9362,-2.9367,-2.9451,-2.9494,-2.9484,-2.953,-2.956,-2.9573,-2.9613,-2.9628,-2.9673,-2.9647,-2.9663,-2.97,-2.9717,-2.977,-2.971,-2.977,-2.9773,-2.9762,-2.9874,-2.9888,-2.9976,-2.9838,-2.9841,-2.9842,0,-2.938,-2.9417,-2.9505,-2.954,-2.9559,-2.96,-2.9644,-2.9682,-2.9717,-2.9724,-2.9754,-2.9751,-2.9807,-2.9769,-2.9848,-2.9808,-2.9833,-2.9846,-2.9849,-2.9855,-2.9811,-2.9883,-3.0004,-3.0018,-2.9861,-2.986,-2.9858,0,-2.9445,-2.9517,-2.958,-2.9598,-2.964,-2.967,-2.9689,-2.9722,-2.975,-2.9789,-2.9807,-2.9852,-2.9877,-2.9913,-2.9922,-2.9894,-3.0002,-2.9964,-3.0011,-3.001,-3.0033,-3.0031,-3.016,-3.0049,-3.0049,-3.0049,-3.0048,0,-2.9537,-2.9592,-2.961,-2.9648,-2.9711,-2.9717,-2.9779,-2.9796,-2.9826,-2.9869,-2.9863,-2.9904,-2.9914,-2.9958,-2.9966,-3.0031,-3.0042,-3.0051,-3.0052,-3.0051,-3.005,-3.0067,-3.0062,-3.0052,-3.0051,-3.0051,-3.005,0,-2.9619,-2.9633,-2.9701,-2.9737,-2.9747,-2.9792,-2.9822,-2.9861,-2.9875,-2.993,-2.9943,-2.9965,-3.0016,-3.003,-3.0091,-3.0097,-3.0174,-3.017,-3.0162,-3.0162,-3.0209,-3.0204,-3.0353,-3.0374,-3.0249,-3.025,-3.0251,0,-2.9677,-2.9719,-2.976,-2.9789,-2.9809,-2.9855,-2.9885,-2.9894,-2.9925,-2.997,-3.0004,-3.0054,-3.0095,-3.0179,-3.0201,-3.0248,-3.0245,-3.0295,-3.0252,-3.0251,-3.0248,-3.0245,-3.025,-3.0302,-3.0303,-3.0305,-3.0305,0,-2.9779,-2.9785,-2.9827,-2.9873,-2.9909,-2.9945,-2.998,-3.0005,-3.0019,-3.0055,-3.0108,-3.014,-3.0204,-3.0255,-3.0304,-3.0325,-3.0319,-3.0319,-3.0332,-3.0332,-3.0326,-3.0331,-3.0185,-3.0315,-3.0314,-3.0313,-3.0313,-3.0312,-2.9852,-2.989,-2.9925,-2.9974,-3.0001,-3.0035,-3.0074,-3.0094,-3.0138,-3.0191,-3.0194,-3.0252,-3.0289,-3.0355,-3.0379,-3.0426,-3.0411,-3.043,-3.0435,-3.044,-3.0444,-3.0319,-3.0434,-3.0434,-3.0434,-3.0434,-3.0433,0,-2.9954,-2.9978,-3.0022,-3.0072,-3.0111,-3.0102,-3.0142,-3.0175,-3.0226,-3.0261,-3.0303,-3.0366,-3.0416,-3.0444,-3.0495,-3.0527,-3.0526,-3.0541,-3.0538,-3.0544,-3.0454,-3.0437,-3.0541,-3.0541,-3.0541,-3.0541,-3.0541,-3.0541,-3.0012,-3.0077,-3.0088,-3.0168,-3.0191,-3.0248,-3.0271,-3.0304,-3.0332,-3.0402,-3.0445,-3.0463,-3.0496,-3.055,-3.0597,-3.0604,-3.0623,-3.064,-3.0646,-3.0561,-3.055,-3.0539,-3.0524,-3.0644,-3.0644,-3.0732,-3.0733,-3.0733]},{"header":{"parameterUnit":"m.s-1","parameterCategory":1,"la1":30.2991,"la2":30.254,"lo1":-89.0895,"lo2":-89.0444,"dy":0.0017,"dx":0.0017,"nx":28,"ny":28,"refTime":"2025-03-07T03:00:00:Z","depth":0,"parameterNumber":3,"parameterNumberName":"V-component_of_WINDS"},"data":[0,0,0,0,0,0,0,0,0,0,0,0,0,0,0,0,0,0,0,0,0,0,0,0,0,0,0,0,0,0,0,0,0,0,0,0,0,0,0,0,0,0,0,0,0,0,0,0,0,0,0,0,0,0,0,0,0,0,0.1503,0.1503,0,0.1455,0.1455,0.1454,0.1504,0.1506,0.1508,0.151,0.1456,0.1452,0.1449,0,0,0,0,0,0,0,0,0,0,0,0,0,0.1633,0.1631,0.1503,0.1503,0.1502,0.1455,0.1455,0.1454,0.1504,0.1506,0.1508,0.1511,0.1457,0.1453,0.1449,0,0,0,0,0,0,0,0,0,0,0,0,0,0.158,0.163,0.1503,0.1521,0.1522,0.1455,0.1455,0.1454,0.1503,0.1506,0.1509,0.1512,0.1458,0.1453,0.1448,0.136,0,0,0.1433,0.1431,0,0,0,0,0,0,0,0,0.1583,0.1575,0.1519,0.152,0.1521,0.1489,0.1481,0.1422,0.1502,0.151,0.151,0.1513,0.1464,0.1459,0.1443,0.1357,0.1355,0.1433,0.143,0.1428,0.1427,0,0,0,0,0,0,0,0.1587,0.1577,0.1484,0.1518,0.1519,0.153,0.1526,0.147,0.1471,0.151,0.1513,0.1507,0.1465,0.1448,0.1442,0.1354,0.1433,0.1429,0.1426,0.1424,0.1193,0.119,0,0,0,0,0,0,0.1589,0.158,0.1486,0.1483,0.156,0.1526,0.1521,0.1496,0.1472,0.1471,0.1505,0.151,0.1455,0.1448,0.144,0.1335,0.1428,0.1423,0.1421,0.1196,0.1192,0.1189,0,0,0,0,0,0,0.1592,0.158,0.1488,0.1532,0.1522,0.152,0.1492,0.1494,0.1477,0.1468,0.1468,0.1487,0.1457,0.1447,0.138,0.1334,0.1421,0.1417,0.12,0.1195,0.119,0.1123,0,0,0,0,0,0,0.1595,0.1581,0.1548,0.1531,0.1519,0.1429,0.1489,0.149,0.1469,0.1475,0.1452,0.1451,0.1458,0.1387,0.1375,0.1329,0.1413,0.1204,0.1198,0.1192,0.1129,0.1117,0.1106,0,0,0,0,0,0.16,0.153,0.1546,0.1534,0.1478,0.1426,0.1419,0.143,0.1465,0.1431,0.1426,0.1451,0.1341,0.1379,0.1367,0.1318,0.1207,0.1199,0.1192,0.1135,0.1119,0.1106,0,0,0,0,0,0,0.1539,0.1528,0.1546,0.1469,0.1448,0.1435,0.1393,0.1413,0.1381,0.1388,0.1402,0.1396,0.1325,0.1315,0.1358,0.1231,0.1279,0.1269,0.124,0.1225,0.1213,0.1217,0.1409,0,0,0,0,0,0.1518,0.1477,0.1469,0.1402,0.1391,0.1393,0.1371,0.1382,0.136,0.1351,0.1341,0.1318,0.1278,0.1251,0.1214,0.1129,0.1124,0.1089,0.1077,0.1067,0.1058,0.1012,0.0996,0.1165,0.1165,0.1165,0,0,0.1471,0.146,0.1434,0.139,0.1375,0.1332,0.1386,0.1338,0.1305,0.1343,0.1279,0.1271,0.1246,0.1169,0.1135,0.1158,0.101,0.1058,0.1051,0.1046,0.1003,0.0987,0.0972,0.116,0.1161,0.1162,0,0,0.1365,0.1353,0.1296,0.128,0.1258,0.126,0.1246,0.1229,0.1226,0.1162,0.119,0.1151,0.1082,0.1063,0.1044,0.0931,0.0953,0.0918,0.0856,0.081,0.0797,0.0785,0.0744,0.0729,0.0909,0.0909,0.0909,0,0.1309,0.1247,0.1263,0.1213,0.1193,0.1227,0.1169,0.1152,0.1118,0.1102,0.113,0.1045,0.103,0.0949,0.0922,0.0906,0.0889,0.092,0.0798,0.0786,0.0776,0.0736,0.0721,0.0905,0.0906,0.0906,0.0906,0,0.118,0.1136,0.1092,0.106,0.1035,0.0981,0.0987,0.096,0.0973,0.0972,0.0906,0.089,0.085,0.0832,0.0843,0.0752,0.0768,0.0796,0.0845,0.0755,0.0718,0.0704,0.0899,0.0901,0.0902,0.0903,0,0,0.1033,0.1012,0.0995,0.0981,0.0959,0.0925,0.0872,0.0835,0.081,0.0785,0.074,0.0682,0.0709,0.0687,0.0697,0.0657,0.0568,0.0691,0.0691,0.0668,0.0465,0.0443,0.0426,0.0583,0.058,0.0578,0.0467,0,0.0926,0.0836,0.0849,0.0762,0.0721,0.0753,0.0707,0.0688,0.0685,0.0649,0.0646,0.0604,0.0643,0.063,0.0593,0.0587,0.0527,0.0595,0.054,0.0538,0.0544,0.0407,0.0383,0.0279,0.0453,0.0451,0.0449,0,0.0789,0.0761,0.067,0.0654,0.0638,0.0596,0.0563,0.0529,0.0507,0.0508,0.0484,0.0501,0.0447,0.0498,0.0422,0.0468,0.0446,0.044,0.0436,0.0431,0.0487,0.0396,0.0246,0.023,0.0427,0.0428,0.043,0,0.069,0.0629,0.0567,0.0554,0.0535,0.0505,0.0495,0.0476,0.0453,0.0424,0.0408,0.0372,0.0352,0.0323,0.033,0.0366,0.0252,0.0303,0.025,0.025,0.0223,0.0225,0.0067,0.0211,0.0211,0.0211,0.0212,0,0.0568,0.0511,0.0523,0.0484,0.0421,0.0436,0.0372,0.0366,0.035,0.0309,0.0335,0.0296,0.0308,0.0269,0.0274,0.021,0.0201,0.0199,0.0201,0.0196,0.0196,0.0181,0.0188,0.0207,0.0208,0.0209,0.021,0,0.0447,0.0453,0.0387,0.0374,0.037,0.0323,0.0312,0.0275,0.0275,0.0224,0.0213,0.0212,0.0168,0.0172,0.0122,0.0125,0.0046,0.0057,0.0054,0.0056,0.0002,0.0007,-0.0172,-0.0195,-0.0035,-0.0037,-0.0038,0,0.0368,0.0326,0.0309,0.0285,0.0273,0.0234,0.0211,0.0224,0.0198,0.017,0.0136,0.0095,0.0063,-0.0009,-0.0015,-0.0053,-0.0044,-0.0104,-0.005,-0.0053,-0.0046,-0.0044,-0.0048,-0.0115,-0.0117,-0.0118,-0.0119,0,0.0228,0.0234,0.02,0.0167,0.0139,0.0114,0.0091,0.0069,0.0079,0.0049,0.0006,-0.0019,-0.0069,-0.0111,-0.0147,-0.0159,-0.0139,-0.0136,-0.0151,-0.0156,-0.0156,-0.0158,0.0024,-0.0132,-0.0131,-0.013,-0.0129,-0.0129,0.0126,0.0089,0.0072,0.0033,0.0018,-0.0005,-0.004,-0.0043,-0.0079,-0.0118,-0.0108,-0.0158,-0.0179,-0.0225,-0.024,-0.028,-0.0258,-0.0279,-0.0285,-0.029,-0.0297,-0.0149,-0.0286,-0.0286,-0.0286,-0.0285,-0.0285,0,-0.0014,-0.0023,-0.0058,-0.0091,-0.0121,-0.0097,-0.0121,-0.0149,-0.0192,-0.0213,-0.0244,-0.0295,-0.0335,-0.0344,-0.0383,-0.0413,-0.0405,-0.0424,-0.0422,-0.0426,-0.0314,-0.0297,-0.043,-0.043,-0.043,-0.043,-0.043,-0.043,-0.009,-0.0151,-0.0148,-0.0217,-0.0226,-0.0273,-0.0289,-0.031,-0.0326,-0.0383,-0.0416,-0.0421,-0.0437,-0.0477,-0.0513,-0.0515,-0.0531,-0.0554,-0.0552,-0.0448,-0.0433,-0.042,-0.0404,-0.0557,-0.0558,-0.0661,-0.0662,-0.0663]}]]